When you browse on this site, cookies collect data to enhance your experience and personalize the content and advertising you see.
Visit our Privacy Policy to learn more. By continuing to use the site, you agree to this use of cookies and data.
  • In Czech Republic
  • List of Countries
  • For 7 days
  • Water Temperature
  • Weather Map
  • Weather Widgets
  • user-avatar
    Login

    Hourly Weather Annaba

    Today, 18 September, Wednesday

    Time Temperature Precipitation Wind Pressure Humidity
    00:00 +26°C° 0 mm 1 mps 760 mmHg 86%
    01:00 +26°C° 0 mm 2 mps 761 mmHg 86%
    02:00 +26°C° 0.1 mm 2 mps 760 mmHg 85%
    03:00 +26°C° 0.1 mm 2 mps 759 mmHg 85%
    04:00 +26°C° 0.1 mm 1 mps 758 mmHg 84%
    05:00 +26°C° 0 mm 1 mps 758 mmHg 84%
    06:00 +26°C° 0 mm 1 mps 759 mmHg 85%
    07:00 +24°C° 0 mm 0 mps 759 mmHg 85%
    08:00 +25°C° 0 mm 0 mps 759 mmHg 77%
    09:00 +27°C° 0 mm 0 mps 759 mmHg 69%
    10:00 +29°C° 0 mm 0 mps 760 mmHg 61%
    11:00 +32°C° 0 mm 1 mps 759 mmHg 55%
    12:00 +33°C° 0 mm 1 mps 759 mmHg 50%
    13:00 +36°C° 0 mm 2 mps 759 mmHg 45%
    14:00 +35°C° 0 mm 2 mps 759 mmHg 46%
    15:00 +35°C° 0 mm 3 mps 759 mmHg 47%
    16:00 +35°C° 0 mm 3 mps 759 mmHg 48%
    17:00 +33°C° 0 mm 3 mps 759 mmHg 55%
    18:00 +30°C° 0 mm 2 mps 759 mmHg 62%
    19:00 +28°C° 0 mm 1 mps 760 mmHg 70%
    20:00 +28°C° 0 mm 1 mps 760 mmHg 70%
    21:00 +28°C° 0 mm 1 mps 760 mmHg 71%
    22:00 +25°C° 0 mm 0 mps 760 mmHg 72%
    23:00 +27°C° 0 mm 1 mps 760 mmHg 70%

    Tomorrow, 19 September, Thursday

    Time Temperature Precipitation Wind Pressure Humidity
    00:00 +27°C° 0 mm 1 mps 760 mmHg 69%
    01:00 +27°C° 0 mm 1 mps 760 mmHg 67%
    02:00 +27°C° 0 mm 1 mps 759 mmHg 67%
    03:00 +27°C° 0 mm 1 mps 759 mmHg 66%
    04:00 +27°C° 0 mm 1 mps 759 mmHg 65%
    05:00 +27°C° 0.3 mm 2 mps 759 mmHg 70%
    06:00 +26°C° 0.3 mm 2 mps 759 mmHg 74%
    07:00 +26°C° 0.3 mm 2 mps 760 mmHg 78%
    08:00 +28°C° 0 mm 2 mps 760 mmHg 70%
    09:00 +29°C° 0 mm 2 mps 760 mmHg 61%
    10:00 +31°C° 0 mm 2 mps 760 mmHg 53%
    11:00 +34°C° 0 mm 2 mps 760 mmHg 48%
    12:00 +35°C° 0 mm 2 mps 760 mmHg 43%
    13:00 +36°C° 0 mm 2 mps 760 mmHg 38%
    14:00 +35°C° 0 mm 3 mps 760 mmHg 44%
    15:00 +34°C° 0 mm 4 mps 759 mmHg 49%
    16:00 +32°C° 0 mm 5 mps 759 mmHg 55%
    17:00 +30°C° 0 mm 4 mps 759 mmHg 61%
    18:00 +29°C° 0 mm 3 mps 760 mmHg 67%
    19:00 +27°C° 0 mm 1 mps 760 mmHg 74%
    20:00 +27°C° 0 mm 2 mps 760 mmHg 73%
    21:00 +27°C° 0 mm 2 mps 761 mmHg 72%
    22:00 +27°C° 0 mm 2 mps 761 mmHg 71%
    23:00 +27°C° 0 mm 2 mps 761 mmHg 71%

    Day after tomorrow, 20 September, Friday

    Time Temperature Precipitation Wind Pressure Humidity
    00:00 +26°C° 0 mm 2 mps 760 mmHg 71%
    01:00 +26°C° 0 mm 2 mps 760 mmHg 70%
    02:00 +26°C° 0 mm 2 mps 760 mmHg 70%
    03:00 +26°C° 0 mm 2 mps 759 mmHg 70%
    04:00 +26°C° 0 mm 2 mps 759 mmHg 69%
    05:00 +26°C° 0 mm 2 mps 759 mmHg 72%
    06:00 +26°C° 0 mm 2 mps 759 mmHg 75%
    07:00 +25°C° 0 mm 2 mps 759 mmHg 78%
    08:00 +27°C° 0 mm 2 mps 759 mmHg 70%
    09:00 +29°C° 0 mm 2 mps 760 mmHg 63%
    10:00 +30°C° 0 mm 2 mps 760 mmHg 56%
    11:00 +31°C° 0 mm 2 mps 760 mmHg 55%
    12:00 +33°C° 0 mm 3 mps 760 mmHg 53%
    13:00 +34°C° 0 mm 3 mps 760 mmHg 51%
    14:00 +33°C° 0 mm 3 mps 759 mmHg 54%
    15:00 +33°C° 0 mm 3 mps 759 mmHg 56%
    16:00 +32°C° 0 mm 4 mps 759 mmHg 58%
    17:00 +30°C° 0 mm 4 mps 759 mmHg 64%
    18:00 +29°C° 0 mm 4 mps 760 mmHg 69%
    19:00 +28°C° 0 mm 4 mps 760 mmHg 75%
    20:00 +27°C° 0 mm 3 mps 760 mmHg 76%
    21:00 +27°C° 0 mm 3 mps 761 mmHg 78%
    22:00 +27°C° 0 mm 2 mps 761 mmHg 79%
    23:00 +27°C° 0 mm 2 mps 761 mmHg 76%

    21 September, Saturday

    Time Temperature Precipitation Wind Pressure Humidity
    00:00 +27°C° 0 mm 2 mps 760 mmHg 72%
    01:00 +27°C° 0 mm 2 mps 760 mmHg 68%
    02:00 +28°C° 0 mm 2 mps 760 mmHg 64%
    03:00 +28°C° 0 mm 2 mps 759 mmHg 60%
    04:00 +28°C° 0 mm 2 mps 759 mmHg 57%
    05:00 +28°C° 0.2 mm 3 mps 759 mmHg 57%
    06:00 +28°C° 0.2 mm 3 mps 759 mmHg 57%
    07:00 +28°C° 0.2 mm 3 mps 759 mmHg 57%
    08:00 +30°C° 0.2 mm 3 mps 759 mmHg 51%
    09:00 +33°C° 0.2 mm 3 mps 760 mmHg 46%
    10:00 +35°C° 0.2 mm 2 mps 760 mmHg 40%
    11:00 +35°C° 0 mm 3 mps 760 mmHg 39%
    12:00 +36°C° 0 mm 3 mps 760 mmHg 38%
    13:00 +37°C° 0 mm 4 mps 759 mmHg 37%
    14:00 +36°C° 0 mm 3 mps 759 mmHg 40%
    15:00 +35°C° 0 mm 3 mps 759 mmHg 44%
    16:00 +34°C° 0 mm 2 mps 758 mmHg 48%
    17:00 +32°C° 0 mm 2 mps 759 mmHg 49%
    18:00 +31°C° 0 mm 2 mps 759 mmHg 51%
    19:00 +31°C° 0 mm 2 mps 759 mmHg 53%
    20:00 +30°C° 0 mm 2 mps 759 mmHg 55%
    21:00 +30°C° 0 mm 3 mps 759 mmHg 56%
    22:00 +29°C° 0 mm 3 mps 760 mmHg 58%
    23:00 +29°C° 0 mm 3 mps 760 mmHg 60%

    22 September, Sunday

    Time Temperature Precipitation Wind Pressure Humidity
    00:00 +28°C° 0 mm 3 mps 759 mmHg 62%
    01:00 +28°C° 0 mm 4 mps 759 mmHg 64%
    02:00 +28°C° 0 mm 4 mps 759 mmHg 63%
    03:00 +28°C° 0 mm 4 mps 759 mmHg 62%
    04:00 +28°C° 0 mm 4 mps 758 mmHg 61%
    05:00 +28°C° 0 mm 4 mps 759 mmHg 61%
    06:00 +28°C° 0 mm 3 mps 759 mmHg 61%
    07:00 +28°C° 0 mm 3 mps 759 mmHg 60%
    08:00 +30°C° 0 mm 3 mps 759 mmHg 54%
    09:00 +33°C° 0 mm 3 mps 759 mmHg 47%
    10:00 +35°C° 0 mm 2 mps 759 mmHg 41%
    11:00 +36°C° 0 mm 3 mps 759 mmHg 36%
    12:00 +38°C° 0 mm 3 mps 759 mmHg 32%
    13:00 +39°C° 0 mm 3 mps 758 mmHg 27%
    14:00 +37°C° 0 mm 4 mps 758 mmHg 36%
    15:00 +35°C° 0 mm 5 mps 758 mmHg 44%
    16:00 +33°C° 0 mm 5 mps 758 mmHg 53%
    17:00 +32°C° 0 mm 4 mps 758 mmHg 58%
    18:00 +29°C° 0 mm 3 mps 758 mmHg 62%
    19:00 +28°C° 0 mm 2 mps 759 mmHg 67%
    20:00 +28°C° 0 mm 2 mps 759 mmHg 69%
    21:00 +27°C° 0 mm 2 mps 760 mmHg 71%
    22:00 +27°C° 0 mm 2 mps 760 mmHg 73%
    23:00 +27°C° 0 mm 2 mps 760 mmHg 73%

    23 September, Monday

    Time Temperature Precipitation Wind Pressure Humidity
    00:00 +27°C° 0 mm 2 mps 760 mmHg 74%
    01:00 +27°C° 0 mm 1 mps 760 mmHg 74%
    02:00 +27°C° 0 mm 1 mps 760 mmHg 73%
    03:00 +27°C° 0 mm 1 mps 760 mmHg 72%
    04:00 +27°C° 0 mm 1 mps 760 mmHg 71%
    05:00 +27°C° 0 mm 1 mps 760 mmHg 71%
    06:00 +27°C° 0 mm 2 mps 760 mmHg 71%
    07:00 +27°C° 0 mm 2 mps 760 mmHg 71%
    08:00 +28°C° 0 mm 2 mps 761 mmHg 68%
    09:00 +28°C° 0 mm 2 mps 761 mmHg 65%
    10:00 +29°C° 0 mm 2 mps 761 mmHg 62%
    11:00 +30°C° 0 mm 3 mps 761 mmHg 59%
    12:00 +31°C° 0 mm 3 mps 761 mmHg 57%
    13:00 +32°C° 0 mm 4 mps 761 mmHg 54%
    14:00 +32°C° 0 mm 4 mps 761 mmHg 56%
    15:00 +30°C° 0 mm 4 mps 760 mmHg 59%
    16:00 +30°C° 0 mm 4 mps 760 mmHg 61%
    17:00 +28°C° 0 mm 3 mps 761 mmHg 67%
    18:00 +27°C° 0 mm 3 mps 761 mmHg 73%
    19:00 +26°C° 0 mm 2 mps 761 mmHg 79%
    20:00 +26°C° 0 mm 2 mps 762 mmHg 81%
    21:00 +25°C° 0 mm 1 mps 762 mmHg 83%
    22:00 +25°C° 0 mm 1 mps 763 mmHg 86%
    23:00 +25°C° 0 mm 1 mps 763 mmHg 87%
    Show more